2022/12/26 00:00:00,47.9,-0.6
2022/12/26 00:10:00,48.0,-0.7
2022/12/26 00:20:00,47.9,-0.9
2022/12/26 00:30:00,47.9,-0.5
2022/12/26 00:40:00,47.9,-0.3
2022/12/26 00:50:00,47.8, 0.0
2022/12/26 01:00:00,47.5, 0.0
2022/12/26 01:10:00,47.5,-0.1
2022/12/26 01:20:00,47.5,-0.2
2022/12/26 01:30:00,47.6,-0.6
2022/12/26 01:40:00,47.5,-0.1
2022/12/26 01:50:00,47.4, 0.0
2022/12/26 02:00:00,47.2, 0.3
2022/12/26 02:10:00,47.2,-0.2
2022/12/26 02:20:00,47.2,-0.9
2022/12/26 02:30:00,47.2,-1.1
2022/12/26 02:40:00,47.2,-1.2
2022/12/26 02:50:00,47.2,-1.1
2022/12/26 03:00:00,47.1,-1.0
2022/12/26 03:10:00,47.1,-0.8
2022/12/26 03:20:00,47.0,-0.9
2022/12/26 03:30:00,46.9,-1.0
2022/12/26 03:40:00,46.8,-1.3
2022/12/26 03:50:00,46.7,-1.3
2022/12/26 04:00:00,46.7,-1.0
2022/12/26 04:10:00,46.7,-0.8
2022/12/26 04:20:00,46.7,-0.8
2022/12/26 04:30:00,46.7,-1.0
2022/12/26 04:40:00,46.6,-0.9
2022/12/26 04:50:00,46.8,-0.9
2022/12/26 05:00:00,47.2,-0.9
2022/12/26 05:10:00,47.9,-0.9
2022/12/26 05:20:00,48.3,-0.9
2022/12/26 05:30:00,48.6,-0.8
2022/12/26 05:40:00,48.8,-1.0
2022/12/26 05:50:00,48.8,-0.9
2022/12/26 06:00:00,48.7,-0.7
2022/12/26 06:10:00,48.6,-0.6
2022/12/26 06:20:00,48.8,-0.7
2022/12/26 06:30:00,49.3,-0.5
2022/12/26 06:40:00,49.6,-0.4
2022/12/26 06:50:00,49.7,-0.5
2022/12/26 07:00:00,49.9,-0.7
2022/12/26 07:10:00,50.0,-0.7
2022/12/26 07:20:00,50.0,-0.7
2022/12/26 07:30:00,49.9,-0.7
2022/12/26 07:40:00,49.9,-0.4
2022/12/26 07:50:00,49.9,-0.1
2022/12/26 08:00:00,50.2,-0.4
2022/12/26 08:10:00,49.8, 0.0
2022/12/26 08:20:00,49.5,-0.1
2022/12/26 08:30:00,49.2, 1.0
2022/12/26 08:40:00,49.1, 0.8
2022/12/26 08:50:00,49.4, 0.2
2022/12/26 09:00:00,49.8, 0.4
2022/12/26 09:10:00,49.8, 0.4
2022/12/26 09:20:00,49.8, 0.8
2022/12/26 09:30:00,49.8, 0.5
2022/12/26 09:40:00,49.6, 0.9
2022/12/26 09:50:00,49.7, 0.6
2022/12/26 10:00:00,49.8, 0.6
2022/12/26 10:10:00,49.6, 1.1
2022/12/26 10:20:00,49.5, 1.1
2022/12/26 10:30:00,49.4, 0.9
2022/12/26 10:40:00,49.4, 2.2
2022/12/26 10:50:00,49.4, 1.1
2022/12/26 11:00:00,49.3, 1.7
2022/12/26 11:10:00,49.2, 1.6
2022/12/26 11:20:00,48.9, 2.0
2022/12/26 11:30:00,48.8, 2.2
2022/12/26 11:40:00,73.7, 1.8
2022/12/26 11:50:00,---, 2.5
2022/12/26 12:00:00,66.6, 2.5
2022/12/26 12:10:00,48.6, 2.4
2022/12/26 12:20:00,48.4, 2.6
2022/12/26 12:30:00,47.8, 3.6
2022/12/26 12:40:00,47.5, 4.2
2022/12/26 12:50:00,46.9, 5.3
2022/12/26 13:00:00,46.6, 3.8
2022/12/26 13:10:00,46.9, 2.8
2022/12/26 13:20:00,46.7, 2.8
2022/12/26 13:30:00,46.8, 2.4
2022/12/26 13:40:00,46.8, 2.2
2022/12/26 13:50:00,46.7, 1.5
2022/12/26 14:00:00,46.7, 1.1
2022/12/26 14:10:00,46.8, 1.4
2022/12/26 14:20:00,46.7, 1.9
2022/12/26 14:30:00,46.6, 2.1
2022/12/26 14:40:00,46.5, 2.4
2022/12/26 14:50:00,46.4, 2.2
2022/12/26 15:00:00,46.3, 1.7
2022/12/26 15:10:00,45.0, 1.1
2022/12/26 15:20:00,44.8, 1.0
2022/12/26 15:30:00,45.0, 1.4
2022/12/26 15:40:00,45.1, 1.9
2022/12/26 15:50:00,45.2, 1.5
2022/12/26 16:00:00,45.3, 1.4
2022/12/26 16:10:00,45.2, 1.0
2022/12/26 16:20:00,45.2, 1.3
2022/12/26 16:30:00,45.2, 0.8
2022/12/26 16:40:00,45.1, 0.8
2022/12/26 16:50:00,45.0, 0.6
2022/12/26 17:00:00,44.9, 0.5
2022/12/26 17:10:00,44.9, 0.5
2022/12/26 17:20:00,44.9, 0.6
2022/12/26 17:30:00,44.8, 0.3
2022/12/26 17:40:00,44.9, 0.3
2022/12/26 17:50:00,45.0, 0.0
2022/12/26 18:00:00,45.1, 0.1
2022/12/26 18:10:00,93.9, 0.2
2022/12/26 18:20:00,---, 0.2
2022/12/26 18:30:00,126.2, 0.1
2022/12/26 18:40:00,---,-0.1
2022/12/26 18:50:00,45.1, 0.0
2022/12/26 19:00:00,69.2,-0.1
2022/12/26 19:10:00,101.4,-0.2
2022/12/26 19:20:00,---, 0.0
2022/12/26 19:30:00,125.8,-0.1
2022/12/26 19:40:00,---,-0.2
2022/12/26 19:50:00,93.3,-0.2
2022/12/26 20:00:00,125.7,-0.2
2022/12/26 20:10:00,125.9,-0.4
2022/12/26 20:20:00,125.7, 0.0
2022/12/26 20:30:00,125.8,-0.1
2022/12/26 20:40:00,125.6,-0.1
2022/12/26 20:50:00,125.7,-0.2
2022/12/26 21:00:00,125.6, 0.0
2022/12/26 21:10:00,---,-0.1
2022/12/26 21:20:00,44.6,-0.1
2022/12/26 21:30:00,---,-0.2
2022/12/26 21:40:00,125.3,-0.3
2022/12/26 21:50:00,77.0,-0.4
2022/12/26 22:00:00,68.9,-0.5
2022/12/26 22:10:00,44.6,-0.5
2022/12/26 22:20:00,125.7,-0.4
2022/12/26 22:30:00,126.2,-0.4
2022/12/26 22:40:00,126.2,-0.4
2022/12/26 22:50:00,125.4,-0.5
2022/12/26 23:00:00,---,-0.4
2022/12/26 23:10:00,125.6,-0.2
2022/12/26 23:20:00,125.5,-0.4
2022/12/26 23:30:00,125.7,-0.3
2022/12/26 23:40:00,125.3,-0.3
2022/12/26 23:50:00,92.9,-0.3
